Location: *
(45.9500°N, 9.0833°E)
Time: 21:07:33
(UTC+00:00)

Vanguard 2 Rocket - Pass Details

Date: 17 June 2021
Orbit: 555 x 3325 km, 32.9° (Epoch: 30 July)

Event Time Altitude Azimuth Distance (km) Brightness Sun altitude
Rises 01:13:47 0° 270° (W) 5,590 10.7 -16.4°
Reaches altitude 10° 01:19:53 10° 252° (WSW) 3,934 9.7 -15.9°
Enters shadow 01:22:11 13° 241° (WSW) 3,409 9.3 -15.7°
Maximum altitude 01:24:52 15° 222° (SW) 2,975 - -15.5°
Drops below altitude 10° 01:28:46 10° 188° (S) 2,912 - -15.2°
Sets 01:32:13 0° 165° (SSE) 3,476 - -14.9°
